Whiting Fld NAS, FL

10:54 AM CST on December 10, 2019 (GMT -0600)
Whiting Field Naval Air Station (North)

Weather History for KNSE - November, 2019

Change the Weather History Date:

Sunday, November 17, 2019

  Actual Average Record
Temperature  
Mean Temperature 52 °F -  
Max Temperature 66 °F 67 °F 80 °F (2013)
Min Temperature 39 °F 49 °F 28 °F (1997)
Degree Days  
Heating Degree Days 12    
Growing Degree Days 2 (Base 50)    
Moisture  
Dew Point 45 °F    
Average Humidity 75    
Maximum Humidity 96    
Minimum Humidity 52    
Precipitation  
Precipitation 0.00 in - - ()
Sea Level Pressure  
Sea Level Pressure 29.95 in    
Wind  
Wind Speed 4 mph ()    
Max Wind Speed 9 mph    
Max Gust Speed -    
Visibility 10.0 miles    
Events      
Averages and records for this station are not official NWS values.
T = Trace of Precipitation, MM = Missing Value Source: Averaged Metar Reports

Daily Weather History Graph

Daily Weather History Graph

Search for Another Location

Airport or City:

Astronomy

Nov. 17, 2019 Rise Set
Actual Time 6:15 AM CST 4:49 PM CST
Civil Twilight 5:50 AM CST 5:15 PM CST
Nautical Twilight 5:21 AM CST 5:44 PM CST
Astronomical Twilight 4:52 AM CST 6:13 PM CST
Moon 9:30 PM CST (11/17) 10:55 AM CST (11/17)
Length of Visible Light 11h 25m
Length of Day
10h 33m
Waning Gibbous, 73% of the Moon is Illuminated
Nov 17
Waning Gibbous
Nov 19
Last Quarter
Nov 26
New
Dec 4
First Quarter
Dec 11
Full

Hourly Weather History & Observations

Time (CST) Temp. Windchill Dew Point Humidity Pressure Visibility Wind Dir Wind Speed Gust Speed Precip Events Conditions
12:56 AM 43.0 °F 41.3 °F 37.9 °F 82% 30.01 in 10.0 mi NNW 3.5 mph - N/A   Clear
1:56 AM 43.0 °F 40.3 °F 37.0 °F 80% 30.00 in 10.0 mi North 4.6 mph - N/A   Clear
2:56 AM 43.0 °F 39.5 °F 37.0 °F 80% 30.00 in 10.0 mi North 5.8 mph - N/A   Clear
3:56 AM 43.0 °F 40.3 °F 36.0 °F 76% 29.99 in 10.0 mi North 4.6 mph - N/A   Clear
4:56 AM 41.0 °F 39.0 °F 36.0 °F 82% 30.00 in 10.0 mi North 3.5 mph - N/A   Clear
5:56 AM 39.9 °F 37.8 °F 36.0 °F 86% 30.01 in 10.0 mi NNE 3.5 mph - N/A   Clear
6:56 AM 43.0 °F 41.3 °F 37.0 °F 80% 30.02 in 10.0 mi NE 3.5 mph - N/A   Clear
7:56 AM 50.0 °F - 42.1 °F 74% 30.03 in 10.0 mi ENE 3.5 mph - N/A   Clear
8:56 AM 57.0 °F - 46.9 °F 69% 30.03 in 10.0 mi Variable 3.5 mph - N/A   Clear
9:56 AM 62.1 °F - 46.9 °F 58% 30.02 in 10.0 mi East 9.2 mph - N/A   Clear
10:56 AM 64.0 °F - 48.0 °F 56% 30.00 in 10.0 mi Variable 4.6 mph - N/A   Clear
11:56 AM 66.0 °F - 48.9 °F 54% 29.96 in 10.0 mi Calm Calm - N/A   Clear
12:56 PM 66.9 °F - 48.9 °F 52% 29.93 in 10.0 mi West 6.9 mph - N/A   Clear
1:56 PM 66.9 °F - 48.9 °F 52% 29.91 in 10.0 mi West 5.8 mph - N/A   Scattered Clouds
2:56 PM 66.0 °F - 48.9 °F 54% 29.90 in 10.0 mi West 3.5 mph - N/A   Scattered Clouds
3:56 PM 64.0 °F - 50.0 °F 60% 29.89 in 10.0 mi West 3.5 mph - N/A   Clear
4:56 PM 57.0 °F - 50.0 °F 77% 29.88 in 10.0 mi WSW 4.6 mph - N/A   Clear
5:56 PM 55.0 °F - 50.0 °F 83% 29.90 in 10.0 mi West 4.6 mph - N/A   Clear
6:56 PM 53.1 °F - 50.0 °F 89% 29.91 in 10.0 mi Calm Calm - N/A   Clear
7:56 PM 50.0 °F - 48.0 °F 93% 29.89 in 10.0 mi Calm Calm - N/A   Clear
8:56 PM 52.0 °F - 48.0 °F 86% 29.90 in 10.0 mi West 5.8 mph - N/A   Clear
9:56 PM 48.0 °F - 46.0 °F 93% 29.89 in 10.0 mi NW 3.5 mph - N/A   Clear
10:56 PM 46.0 °F 43.9 °F 45.0 °F 96% 29.89 in 10.0 mi WNW 4.6 mph - N/A   Clear
11:56 PM 48.9 °F - 46.0 °F 90% 29.88 in 10.0 mi NW 4.6 mph - N/A   Clear